Weather History for Mombasa, Kenya

Change the Weather History Date:

Friday, October 12, 2012

  Actual Average Record
Temperature  
Mean Temperature 78 °F -  
Max Temperature 82 °F 88 °F 87 °F (2004)
Min Temperature 74 °F 71 °F 69 °F (1999)
Cooling Degree Days 13    
Growing Degree Days 28 (Base 50)    
Moisture  
Dew Point 74 °F    
Average Humidity 91    
Maximum Humidity 94    
Minimum Humidity 74    
Precipitation  
Precipitation 0.94 in 0.14 in - ()
Sea Level Pressure  
Sea Level Pressure 29.93 in    
Wind  
Wind Speed 7 mph ()    
Max Wind Speed 12 mph    
Max Gust Speed -    
Visibility 5.9 miles    
Events Rain    
Averages and records for this station are not official NWS values.
T = Trace of Precipitation, MM = Missing Value Source: Averaged Metar Reports

Daily Weather History Graph

Daily Weather History Graph

Search for Another Location

Airport:

Trip Planner

Search our weather history database for the weather conditions in past years. The results will help you decide how hot, cold, wet, or windy it might be!

Date:

Astronomy

Oct. 12, 2012 Rise Set
Actual Time 6:02 AM EAT 6:13 PM EAT
Civil Twilight 5:41 AM EAT 6:34 PM EAT
Nautical Twilight 5:17 AM EAT 6:58 PM EAT
Astronomical Twilight 4:52 AM EAT 7:23 PM EAT
Moon 3:10 AM EAT (10/12) 3:31 PM EAT (10/12)
Length of Visible Light 12h 52m
Length of Day
12h 10m
Waning Crescent, 13% of the Moon is Illuminated
Oct 12
Waning Crescent
Oct 15
New
Oct 22
First Quarter
Oct 29
Full
Nov 7
Last Quarter

Hourly Weather History & Observations

Time (EAT) Temp. Heat Index Dew Point Humidity Pressure Visibility Wind Dir Wind Speed Gust Speed Precip Events Conditions
12:00 AM 75.2 °F - 73.4 °F 94% 29.95 in 6.2 mi SSW 8.1 mph - N/A   Mostly Cloudy
1:00 AM 75.2 °F - 73.4 °F 94% 29.92 in 6.2 mi SSW 10.4 mph - N/A   Mostly Cloudy
2:00 AM 75.2 °F - 73.4 °F 94% 29.92 in 6.2 mi SSW 9.2 mph - N/A   Mostly Cloudy
3:00 AM 75 °F - 73 °F 90% 29.92 in 12 mi SSW 6.9 mph - -   Scattered Clouds
3:00 AM 75.2 °F - 73.4 °F 94% 29.92 in 6.2 mi SSW 6.9 mph - N/A   Mostly Cloudy
4:00 AM 75.2 °F - 73.4 °F 94% 29.92 in 6.2 mi SW 3.5 mph - N/A   Mostly Cloudy
5:00 AM 75.2 °F - 73.4 °F 94% 29.92 in 6.2 mi Calm Calm - N/A   Scattered Clouds
6:00 AM 75.2 °F - 73.4 °F 94% 29.95 in 6.2 mi SW 6.9 mph - N/A   Scattered Clouds
7:00 AM 75.2 °F - 73.4 °F 94% 29.95 in 6.2 mi SSW 8.1 mph - N/A   Partly Cloudy
8:00 AM 77.0 °F - 75.2 °F 94% 29.98 in 6.2 mi SSW 6.9 mph - N/A   Scattered Clouds
9:00 AM 78 °F - 76 °F 91% 29.99 in 4 mi South 5.8 mph - -   Mostly Cloudy
9:00 AM 78.8 °F - 75.2 °F 89% 29.98 in 5.0 mi South 5.8 mph - N/A   Mostly Cloudy
9:30 AM 78.8 °F - 75.2 °F 89% 29.98 in 5.0 mi South 5.8 mph - N/A   Mostly Cloudy
10:00 AM 78.8 °F - 75.2 °F 89% 29.98 in 6.2 mi South 5.8 mph - N/A   Mostly Cloudy
11:00 AM 82.4 °F 88.2 °F 73.4 °F 74% 29.98 in 6.2 mi SSE 5.8 mph - N/A   Mostly Cloudy
11:30 AM 82.4 °F 88.2 °F 73.4 °F 74% 29.95 in 6.2 mi South 6.9 mph - N/A   Mostly Cloudy
1:00 PM 77.0 °F - 75.2 °F 94% 29.92 in 5.0 mi South 9.2 mph - N/A Rain Light Rain Showers
2:00 PM 77.0 °F - 75.2 °F 94% 29.89 in 1.9 mi South 11.5 mph - N/A Rain Light Rain Showers
3:00 PM 76 °F - 74 °F 91% 29.88 in 19 mi South 8.1 mph - - Rain Heavy Rain Showers
3:00 PM 75.2 °F - 73.4 °F 94% 29.86 in 2.5 mi South 8.1 mph - N/A Rain Light Rain Showers
3:30 PM 77.0 °F - 75.2 °F 94% 29.86 in 6.2 mi South 9.2 mph - N/A   Mostly Cloudy
4:30 PM 77.0 °F - 73.4 °F 89% 29.86 in 5.0 mi South 8.1 mph - N/A   Mostly Cloudy
6:00 PM 75.2 °F - 73.4 °F 94% 29.89 in 2.5 mi South 6.9 mph - N/A Rain Light Rain Showers
7:00 PM 75.2 °F - 73.4 °F 94% 29.92 in 6.2 mi SSW 9.2 mph - N/A   Mostly Cloudy
8:30 PM 75.2 °F - 73.4 °F 94% 29.95 in 2.5 mi SSW 6.9 mph - N/A Rain Light Rain Showers
10:00 PM 75.2 °F - 73.4 °F 94% 29.95 in 2.5 mi SSE 6.9 mph - N/A Rain Light Rain Showers
11:00 PM 75.2 °F - 73.4 °F 94% 29.95 in 6.2 mi SW 8.1 mph - N/A   Mostly Cloudy